TimeEDT,TemperatureF,Dew PointF,Humidity,Sea Level PressureIn,VisibilityMPH,Wind Direction,Wind SpeedMPH,Gust SpeedMPH,PrecipitationIn,Events,Conditions,WindDirDegrees,DateUTC
12:57 AM,-9999,-9999,N/A,30.21,10.0,Calm,Calm,-,N/A,,Clear,0,2013-08-21 04:57:00
1:57 AM,-9999,-9999,N/A,30.21,10.0,Calm,Calm,-,N/A,,Clear,0,2013-08-21 05:57:00
2:57 AM,-9999,-9999,N/A,30.20,10.0,Calm,Calm,-,N/A,,Partly Cloudy,0,2013-08-21 06:57:00
3:57 AM,-9999,-9999,N/A,30.20,10.0,Calm,Calm,-,N/A,,Mostly Cloudy,0,2013-08-21 07:57:00
4:57 AM,-9999,-9999,N/A,30.20,10.0,Calm,Calm,-,N/A,,Clear,0,2013-08-21 08:57:00
5:57 AM,-9999,-9999,N/A,30.20,10.0,Calm,Calm,-,N/A,,Clear,0,2013-08-21 09:57:00
6:57 AM,-9999,-9999,N/A,30.22,10.0,Calm,Calm,-,N/A,,Clear,0,2013-08-21 10:57:00
7:57 AM,-9999,-9999,N/A,30.23,10.0,NE,3.5,-,N/A,,Scattered Clouds,50,2013-08-21 11:57:00
8:57 AM,82.9,73.9,74,30.24,10.0,NE,3.5,-,N/A,,Scattered Clouds,50,2013-08-21 12:57:00
9:57 AM,84.9,73.9,69,30.24,10.0,SSE,5.8,-,N/A,,Scattered Clouds,150,2013-08-21 13:57:00
10:57 AM,84.0,73.9,72,30.25,10.0,SE,3.5,-,0.05,,Mostly Cloudy,140,2013-08-21 14:57:00
11:57 AM,86.0,73.9,67,30.24,10.0,SSE,5.8,-,N/A,,Clear,150,2013-08-21 15:57:00
12:57 PM,87.1,73.0,63,30.23,10.0,SSE,6.9,-,N/A,,Clear,150,2013-08-21 16:57:00
1:57 PM,87.1,73.9,65,30.22,10.0,SSE,6.9,-,N/A,,Clear,150,2013-08-21 17:57:00
2:57 PM,87.1,73.9,65,30.19,10.0,SSE,8.1,-,N/A,,Clear,160,2013-08-21 18:57:00
3:57 PM,86.0,73.9,67,30.17,10.0,SSE,8.1,-,N/A,,Clear,150,2013-08-21 19:57:00
4:57 PM,86.0,73.9,67,30.17,10.0,SE,10.4,-,N/A,,Clear,140,2013-08-21 20:57:00
5:57 PM,84.9,73.9,69,30.16,10.0,SE,8.1,-,N/A,,Clear,140,2013-08-21 21:57:00
6:57 PM,84.0,73.9,72,30.15,10.0,South,4.6,-,N/A,,Clear,170,2013-08-21 22:57:00
7:57 PM,82.9,75.0,77,30.15,10.0,South,3.5,-,N/A,,Clear,170,2013-08-21 23:57:00
8:57 PM,82.0,75.0,79,30.17,10.0,WSW,3.5,-,N/A,,Clear,240,2013-08-22 00:57:00
9:57 PM,81.0,73.9,79,30.19,10.0,Calm,Calm,-,N/A,,Clear,0,2013-08-22 01:57:00
10:57 PM,80.1,70.0,71,30.19,10.0,WNW,4.6,-,N/A,,Mostly Cloudy,300,2013-08-22 02:57:00
11:57 PM,77.0,68.0,74,30.15,10.0,WNW,3.5,-,N/A,,Clear,290,2013-08-22 03:57:00